Lacon, IL

2:37 PM CST on December 05, 2019 (GMT -0600)
Lacon

Weather History for KC75 - November, 2019

Change the Weather History Date:

Saturday, November 16, 2019

  Actual Average (WUND) Record (WUND)
Temperature  
Mean Temperature 30 °F -  
Max Temperature 42 °F - - (-1)
Min Temperature 19 °F - - (-1)
Degree Days  
Heating Degree Days 34    
Moisture  
Dew Point 27 °F    
Average Humidity 84    
Maximum Humidity 96    
Minimum Humidity 60    
Precipitation  
Precipitation 0.00 in - - ()
Sea Level Pressure  
Sea Level Pressure 30.31 in    
Wind  
Wind Speed 3 mph (ESE)    
Max Wind Speed 9 mph    
Max Gust Speed -    
Visibility 6 miles    
Events      
Averages and records for this station are not official NWS values.
T = Trace of Precipitation, MM = Missing Value Source: NWS Daily Summary

Daily Weather History Graph

Daily Weather History Graph

Search for Another Location

Airport or City:

Astronomy

Nov. 16, 2019 Rise Set
Actual Time 6:45 AM CST 4:37 PM CST
Civil Twilight 6:16 AM CST 5:07 PM CST
Nautical Twilight 5:42 AM CST 5:40 PM CST
Astronomical Twilight 5:10 AM CST 6:13 PM CST
Moon 8:09 PM CST (11/16) 10:40 AM CST (11/16)
Length of Visible Light 10h 51m
Length of Day
9h 52m
Waning Gibbous, 82% of the Moon is Illuminated
Nov 16
Waning Gibbous
Nov 19
Last Quarter
Nov 26
New
Dec 4
First Quarter
Dec 11
Full

Hourly Weather History & Observations

Time (CST) Temp. Windchill Dew Point Humidity Pressure Visibility Wind Dir Wind Speed Gust Speed Precip Events Conditions
12:15 AM 26.6 °F 21.2 °F 25.0 °F 94% 30.40 in 5.0 mi East 4.6 mph - N/A   Clear
12:35 AM 27.1 °F 20.7 °F 25.2 °F 92% 30.39 in 5.0 mi East 5.8 mph - N/A   Clear
12:55 AM 27.5 °F 21.1 °F 25.3 °F 92% 30.39 in 5.0 mi East 5.8 mph - N/A   Clear
1:15 AM 28.4 °F 24.6 °F 25.9 °F 90% 30.39 in 7.0 mi East 3.5 mph - N/A   Clear
1:35 AM 27.1 °F 23.2 °F 24.4 °F 90% 30.39 in 5.0 mi ENE 3.5 mph - N/A   Clear
1:55 AM 26.8 °F 22.8 °F 24.4 °F 91% 30.39 in 5.0 mi ENE 3.5 mph - N/A   Clear
2:15 AM 25.3 °F - 23.2 °F 91% 30.39 in 5.0 mi Calm Calm - N/A   Clear
2:35 AM 24.8 °F - 23.0 °F 93% 30.39 in 5.0 mi Calm Calm - N/A   Clear
2:55 AM 23.2 °F - 21.7 °F 94% 30.38 in 4.0 mi Calm Calm - N/A   Clear
3:15 AM 23.0 °F - 21.6 °F 94% 30.38 in 4.0 mi Calm Calm - N/A   Clear
3:35 AM 23.2 °F - 22.1 °F 96% 30.38 in 4.0 mi Calm Calm - N/A   Clear
3:55 AM 21.6 °F - 20.1 °F 94% 30.39 in 4.0 mi Calm Calm - N/A   Clear
4:15 AM 22.8 °F - 21.7 °F 96% 30.39 in 4.0 mi Calm Calm - N/A   Clear
4:35 AM 20.7 °F - 19.6 °F 96% 30.39 in 4.0 mi Calm Calm - N/A   Clear
4:55 AM 21.6 °F - 20.3 °F 95% 30.40 in 4.0 mi Calm Calm - N/A   Clear
5:15 AM 20.8 °F - 19.6 °F 95% 30.40 in 3.0 mi Calm Calm - N/A   Clear
5:35 AM 20.3 °F - 19.2 °F 96% 30.39 in 4.0 mi Calm Calm - N/A   Clear
5:55 AM 20.3 °F - 19.2 °F 96% 30.40 in 4.0 mi Calm Calm - N/A   Clear
6:15 AM 19.9 °F - 18.9 °F 96% 30.40 in 3.0 mi Calm Calm - N/A   Clear
6:35 AM 19.8 °F - 18.9 °F 96% 30.40 in 3.0 mi Calm Calm - N/A   Clear
6:55 AM 19.9 °F - 19.0 °F 96% 30.41 in 2.0 mi Calm Calm - N/A   Clear
7:15 AM 21.0 °F - 19.9 °F 96% 30.41 in 3.0 mi Calm Calm - N/A   Clear
7:35 AM 22.1 °F - 20.8 °F 95% 30.40 in 4.0 mi Calm Calm - N/A   Clear
7:55 AM 25.7 °F - 24.6 °F 96% 30.40 in 2.5 mi Calm Calm - N/A   Clear
8:15 AM 27.3 °F - 25.9 °F 94% 30.40 in 2.5 mi Calm Calm - N/A   Clear
8:35 AM 31.1 °F - 29.3 °F 93% 30.40 in 2.5 mi Calm Calm - N/A   Clear
8:55 AM 32.0 °F 27.5 °F 29.5 °F 90% 30.40 in 2.5 mi ESE 4.6 mph - N/A   Clear
9:15 AM 33.1 °F 30.0 °F 30.4 °F 90% 30.40 in 3.0 mi ESE 3.5 mph - N/A   Clear
9:35 AM 34.3 °F 29.2 °F 30.9 °F 87% 30.39 in 4.0 mi ESE 5.8 mph - N/A   Clear
9:55 AM 35.6 °F 29.9 °F 30.9 °F 83% 30.39 in 4.0 mi SE 6.9 mph - N/A   Haze
10:15 AM 37.0 °F 33.3 °F 31.6 °F 81% 30.38 in 5.0 mi ESE 4.6 mph - N/A   Haze
10:35 AM 38.5 °F 32.7 °F 30.9 °F 74% 30.38 in 5.0 mi SSE 8.1 mph - N/A   Haze
10:50 AM 38.7 °F 33.6 °F 31.1 °F 74% 30.37 in 7.0 mi SE 6.9 mph - N/A   Clear
11:15 AM 39.6 °F 34.7 °F 30.4 °F 70% 30.36 in 7.0 mi SE 6.9 mph - N/A   Clear
11:35 AM 39.9 °F 33.9 °F 30.4 °F 69% 30.35 in 7.0 mi SSE 9.2 mph - N/A   Clear
11:55 AM 40.3 °F 36.3 °F 30.9 °F 69% 30.33 in 7.0 mi SSE 5.8 mph - N/A   Clear
12:15 PM 41.0 °F 35.8 °F 30.6 °F 66% 30.32 in 7.0 mi SE 8.1 mph - N/A   Clear
12:55 PM 41.7 °F 37.3 °F 30.0 °F 63% 30.31 in 7.0 mi ESE 6.9 mph - N/A   Clear
1:15 PM 42.3 °F 37.3 °F 30.6 °F 63% 30.30 in 7.0 mi SSE 8.1 mph - N/A   Clear
1:35 PM 42.3 °F 37.3 °F 30.2 °F 62% 30.29 in 7.0 mi SE 8.1 mph - N/A   Clear
1:55 PM 42.1 °F 39.2 °F 30.4 °F 63% 30.28 in 7.0 mi ESE 4.6 mph - N/A   Clear
2:15 PM 42.6 °F 37.8 °F 29.7 °F 60% 30.27 in 10.0 mi SE 8.1 mph - N/A   Clear
2:35 PM 42.8 °F 38.0 °F 29.8 °F 60% 30.26 in 10.0 mi SE 8.1 mph - N/A   Clear
2:55 PM 42.8 °F 38.0 °F 30.0 °F 61% 30.25 in 7.0 mi East 8.1 mph - N/A   Clear
3:15 PM 42.1 °F 37.7 °F 30.0 °F 62% 30.25 in 7.0 mi ESE 6.9 mph - N/A   Clear
3:35 PM 42.3 °F 39.4 °F 30.2 °F 62% 30.25 in 7.0 mi SE 4.6 mph - N/A   Clear
3:55 PM 41.4 °F 36.8 °F 30.7 °F 66% 30.25 in 7.0 mi ESE 6.9 mph - N/A   Clear
4:15 PM 40.3 °F 36.3 °F 30.4 °F 68% 30.24 in 7.0 mi SE 5.8 mph - N/A   Clear
4:35 PM 38.7 °F 34.3 °F 30.2 °F 72% 30.23 in 7.0 mi SE 5.8 mph - N/A   Clear
4:55 PM 37.6 °F 35.1 °F 29.8 °F 74% 30.23 in 7.0 mi ESE 3.5 mph - N/A   Clear
5:35 PM 35.8 °F 31.9 °F 29.8 °F 79% 30.23 in 7.0 mi ESE 4.6 mph - N/A   Clear
5:55 PM 35.2 °F 32.4 °F 29.7 °F 80% 30.23 in 7.0 mi ESE 3.5 mph - N/A   Clear
6:15 PM 34.5 °F 30.4 °F 29.3 °F 81% 30.23 in 7.0 mi ESE 4.6 mph - N/A   Clear
6:35 PM 34.0 °F 29.8 °F 29.3 °F 83% 30.22 in 7.0 mi SE 4.6 mph - N/A   Clear
6:55 PM 30.9 °F - 28.0 °F 89% 30.22 in 5.0 mi Calm Calm - N/A   Clear
7:15 PM 29.3 °F - 27.0 °F 91% 30.22 in 5.0 mi Calm Calm - N/A   Clear
7:35 PM 28.2 °F - 26.2 °F 92% 30.22 in 4.0 mi Calm Calm - N/A   Clear
7:55 PM 28.0 °F - 25.9 °F 92% 30.21 in 4.0 mi Calm Calm - N/A   Clear
8:15 PM 26.4 °F - 24.6 °F 93% 30.20 in 4.0 mi Calm Calm - N/A   Clear
8:35 PM 31.8 °F 24.6 °F 29.8 °F 92% 30.19 in 7.0 mi ESE 8.1 mph - N/A   Clear
8:55 PM 32.2 °F 25.8 °F 28.9 °F 88% 30.19 in 7.0 mi ESE 6.9 mph - N/A   Clear
9:15 PM 30.9 °F - 27.1 °F 86% 30.20 in 7.0 mi Calm Calm - N/A   Clear
9:30 PM 31.3 °F 27.9 °F 28.2 °F 88% 30.20 in 7.0 mi SSE 3.5 mph - N/A   Clear
9:55 PM 31.6 °F 25.1 °F 28.2 °F 87% 30.19 in 10.0 mi SE 6.9 mph - N/A   Clear
10:15 PM 31.6 °F 26.0 °F 28.0 °F 87% 30.19 in 10.0 mi SE 5.8 mph - N/A   Clear
10:35 PM 31.6 °F 25.1 °F 28.2 °F 87% 30.18 in 10.0 mi SE 6.9 mph - N/A   Clear
10:55 PM 31.6 °F 25.1 °F 28.2 °F 87% 30.18 in 10.0 mi SE 6.9 mph - N/A   Clear
11:15 PM 31.6 °F 28.3 °F 28.0 °F 87% 30.18 in 10.0 mi SE 3.5 mph - N/A   Clear
11:35 PM 29.7 °F - 27.0 °F 90% 30.19 in 7.0 mi Calm Calm - N/A   Clear
11:55 PM 30.4 °F 26.9 °F 27.5 °F 89% 30.18 in 10.0 mi SSE 3.5 mph - N/A   Clear